TimeEET,TemperatureF,Dew PointF,Humidity,Sea Level PressureIn,VisibilityMPH,Wind Direction,Wind SpeedMPH,Gust SpeedMPH,PrecipitationIn,Events,Conditions,WindDirDegrees,DateUTC
12:00 AM,66.2,64.4,94,29.74,-9999.0,WSW,9.2,-,N/A,,Clear,240,2014-01-26 22:00:00
1:00 AM,66.2,62.6,88,29.74,-9999.0,WNW,6.9,-,N/A,,Clear,300,2014-01-26 23:00:00
2:00 AM,65,63,92,29.73,6,NW,9.2,,,,,310,2014-01-27 00:00:00
2:00 AM,66.2,62.6,88,29.71,-9999.0,NW,9.2,-,N/A,,Clear,310,2014-01-27 00:00:00
3:00 AM,66.2,62.6,88,29.71,-9999.0,NW,16.1,-,N/A,,Clear,310,2014-01-27 01:00:00
4:00 AM,64.4,57.2,77,29.71,-9999.0,NW,13.8,-,N/A,,Clear,310,2014-01-27 02:00:00
5:00 AM,62,47,48,29.73,6,NW,11.5,,,,,310,2014-01-27 03:00:00
5:00 AM,62.6,46.4,55,29.71,-9999.0,NW,11.5,-,N/A,,Clear,310,2014-01-27 03:00:00
6:00 AM,60.8,42.8,52,29.71,-9999.0,WNW,12.7,-,N/A,,Clear,300,2014-01-27 04:00:00
7:00 AM,60.8,41.0,48,29.74,-9999.0,WNW,12.7,-,N/A,,Clear,300,2014-01-27 05:00:00
8:00 AM,63,40,31,29.76,6,NW,13.8,,,,,320,2014-01-27 06:00:00
8:00 AM,62.6,39.2,42,29.74,-9999.0,NW,13.8,-,N/A,,Clear,320,2014-01-27 06:00:00
9:00 AM,69.8,42.8,38,29.77,-9999.0,North,13.8,-,N/A,,Clear,350,2014-01-27 07:00:00
10:00 AM,71.6,39.2,31,29.77,-9999.0,North,16.1,-,N/A,,Clear,350,2014-01-27 08:00:00
11:00 AM,74,48,28,29.76,6,North,18.4,,,,,350,2014-01-27 09:00:00
11:00 AM,71.6,48.2,43,29.74,-9999.0,North,18.4,-,N/A,,Clear,350,2014-01-27 09:00:00
12:00 PM,-9999,-9999,N/A,29.71,-9999.0,North,-9999.0,-,N/A,,Clear,0,2014-01-27 10:00:00
1:00 PM,78.8,48.2,34,29.68,-9999.0,North,16.1,-,N/A,,Clear,10,2014-01-27 11:00:00
2:00 PM,80,48,22,29.69,6,NNE,13.8,,,,,30,2014-01-27 12:00:00
2:00 PM,80.6,44.6,28,29.68,-9999.0,NNE,13.8,-,N/A,,Clear,30,2014-01-27 12:00:00
3:00 PM,78.8,50.0,36,29.65,-9999.0,NE,9.2,-,N/A,,Clear,40,2014-01-27 13:00:00
4:00 PM,78.8,50.0,36,29.68,-9999.0,ESE,6.9,-,N/A,,Clear,120,2014-01-27 14:00:00
5:00 PM,76,51,31,29.69,6,ESE,9.2,,,,,120,2014-01-27 15:00:00
5:00 PM,75.2,51.8,44,29.68,-9999.0,ESE,9.2,-,N/A,,Clear,120,2014-01-27 15:00:00
6:00 PM,75.2,51.8,44,29.71,-9999.0,ESE,6.9,-,N/A,,Clear,120,2014-01-27 16:00:00
7:00 PM,68.0,51.8,56,29.74,-9999.0,Calm,Calm,-,N/A,,Clear,0,2014-01-27 17:00:00
8:00 PM,65,51,51,29.77,6,Calm,Calm,,,,,,2014-01-27 18:00:00
8:00 PM,66.2,51.8,60,29.77,-9999.0,Calm,Calm,-,N/A,,Clear,0,2014-01-27 18:00:00
9:00 PM,-9999,-9999,N/A,29.77,-9999.0,North,-9999.0,-,N/A,,Clear,0,2014-01-27 19:00:00
10:00 PM,66.2,35.6,32,29.80,-9999.0,WNW,16.1,-,N/A,,Clear,300,2014-01-27 20:00:00
11:00 PM,64,36,24,29.84,6,North,9.2,,,,,10,2014-01-27 21:00:00
11:00 PM,64.4,35.6,34,29.83,-9999.0,North,9.2,-,N/A,,Clear,10,2014-01-27 21:00:00